CW7218 Weather Reports


Display with metric or nautical units.
time (UTC)temp
F
wind
direction
speed
MPH
gust
MPH
rain 1hr
in
rain 24hr
in
rain mn
in
humidity
%
barometer
mb
20260507070018 53 90 2.0 6.0 0.00 0.00 0.00 77 1013.0
20260507065018 51 68 3.0 7.0 0.00 0.00 0.00 80 1012.8
20260507064018 51 45 5.0 8.0 0.00 0.00 0.00 80 1013.0
20260507063018 50 45 4.0 7.0 0.00 0.00 0.00 81 1012.8
20260507062018 49 45 5.0 8.0 0.00 0.00 0.00 82 1012.9
20260507061018 49 68 3.0 7.0 0.00 0.00 0.00 82 1012.8
20260507060018 48 68 5.0 10.0 0.00 0.00 0.00 84 1012.5
20260507055038 48 45 6.0 8.0 0.00 0.00 0.00 85 1012.5
20260507054018 47 45 7.0 10.0 0.00 0.00 0.00 86 1012.4
20260507053018 47 45 7.0 9.0 0.00 0.00 0.00 85 1012.4
20260507052038 47 45 6.0 9.0 0.00 0.00 0.00 85 1012.4
20260507051018 47 45 5.0 8.0 0.00 0.00 0.00 85 1012.5
20260507050018 47 45 5.0 7.0 0.00 0.00 0.00 86 1012.4
20260507045018 47 45 5.0 9.0 0.00 0.00 0.00 86 1012.5
20260507044018 47 45 6.0 8.0 0.00 0.00 0.00 86 1012.4
20260507043018 47 23 6.0 9.0 0.00 0.00 0.00 84 1012.3
20260507042018 47 45 5.0 9.0 0.00 0.00 0.00 86 1012.4
20260507041038 47 45 5.0 8.0 0.00 0.00 0.00 85 1012.3
20260507040038 48 45 6.0 9.0 0.00 0.00 0.00 84 1012.4
20260507035017 48 45 5.0 7.0 0.00 0.00 0.00 84 1012.3
20260507034018 48 45 5.0 7.0 0.00 0.00 0.00 84 1012.5
20260507033017 49 45 3.0 5.0 0.00 0.00 0.00 80 1012.6
20260507032017 49 45 4.0 6.0 0.00 0.00 0.00 81 1012.5
20260507031017 49 68 2.0 5.0 0.00 0.00 0.00 81 1012.4
20260507030017 49 45 2.0 5.0 0.00 0.00 0.00 81 1012.5
20260507025017 49 23 3.0 8.0 0.00 0.00 0.00 82 1012.5
20260507024017 49 45 4.0 7.0 0.00 0.00 0.00 83 1012.5
20260507023017 49 68 4.0 7.0 0.00 0.00 0.00 84 1012.6
20260507022017 49 90 4.0 7.0 0.00 0.00 0.00 85 1012.7
20260507021017 49 68 6.0 8.0 0.00 0.00 0.00 85 1012.6
20260507020057 49 90 6.0 11.0 0.00 0.00 0.00 84 1012.5
20260507015017 50 45 6.0 9.0 0.00 0.00 0.00 84 1012.4
20260507014017 50 68 8.0 13.0 0.00 0.00 0.00 84 1012.4
20260507013057 50 45 6.0 10.0 0.00 0.00 0.00 83 1012.5
20260507012037 50 23 6.0 10.0 0.00 0.00 0.00 82 1012.6
20260507011017 50 45 5.0 9.0 0.00 0.00 0.00 81 1012.7
20260507010017 51 45 4.0 7.0 0.00 0.00 0.00 82 1012.8
20260507005017 51 23 4.0 5.0 0.00 0.00 0.00 81 1013.2
20260507004017 51 45 2.0 6.0 0.00 0.00 0.00 81 1013.3
20260507003037 51 45 4.0 6.0 0.00 0.00 0.00 81 1013.3
20260507002017 51 45 5.0 7.0 0.00 0.00 0.00 80 1013.3
20260507001017 51 45 4.0 7.0 0.00 0.00 0.00 79 1013.2
20260507000017 51 45 3.0 5.0 0.00 0.00 0.00 79 1013.3
20260506235017 51 45 5.0 8.0 0.00 0.00 0.00 78 1013.3
20260506234017 52 45 4.0 7.0 0.00 0.00 0.00 76 1013.3
20260506233017 52 45 4.0 7.0 0.00 0.00 0.00 76 1013.2
20260506232057 52 45 5.0 8.0 0.00 0.00 0.00 76 1013.2
20260506231037 52 23 4.0 8.0 0.00 0.00 0.00 75 1013.0
20260506230017 52 45 4.0 6.0 0.00 0.00 0.00 75 1012.9
20260506225017 52 45 4.0 7.0 0.00 0.00 0.00 74 1012.9
20260506224017 53 68 3.0 7.0 0.00 0.00 0.00 74 1012.7
20260506223017 53 180 2.0 3.0 0.00 0.00 0.00 79 1012.7
20260506222017 53 203 3.0 5.0 0.00 0.00 0.00 78 1012.7
20260506221017 54 180 3.0 5.0 0.00 0.00 0.00 76 1012.6
20260506220017 54 180 2.0 4.0 0.00 0.00 0.00 75 1012.7
20260506215017 54 203 3.0 8.0 0.00 0.00 0.00 74 1012.7
20260506214017 54 248 4.0 6.0 0.00 0.00 0.00 72 1012.7
20260506213017 54 248 5.0 7.0 0.00 0.00 0.00 72 1012.6
20260506212017 54 248 4.0 7.0 0.00 0.00 0.00 72 1012.6
20260506211017 55 248 3.0 5.0 0.00 0.00 0.00 71 1012.5
20260506210019 55 225 3.0 5.0 0.00 0.00 0.00 70 1012.6
20260506205018 55 203 3.0 4.0 0.00 0.00 0.00 70 1012.4
20260506204019 55 203 2.0 6.0 0.00 0.00 0.00 70 1012.1
20260506203018 55 180 4.0 7.0 0.00 0.00 0.00 70 1011.9
20260506202018 55 158 2.0 5.0 0.00 0.00 0.00 69 1011.7
20260506201019 56 158 3.0 7.0 0.00 0.00 0.00 66 1011.4
20260506200018 56 180 2.0 4.0 0.00 0.00 0.00 65 1011.3
20260506195019 57 248 3.0 7.0 0.00 0.00 0.00 62 1011.1
20260506194018 56 248 4.0 7.0 0.00 0.00 0.00 62 1010.5
20260506193018 56 248 4.0 8.0 0.00 0.00 0.00 63 1010.4
20260506192018 57 248 3.0 7.0 0.00 0.00 0.00 63 1010.2
20260506191018 57 248 3.0 5.0 0.00 0.00 0.00 62 1010.1
20260506190019 57 270 3.0 4.0 0.00 0.00 0.00 62 1010.0
20260506185018 58 225 3.0 5.0 0.00 0.00 0.00 62 1009.8
20260506184018 58 180 3.0 6.0 0.00 0.00 0.00 61 1009.7
20260506183018 58 180 4.0 7.0 0.00 0.00 0.00 59 1009.6
20260506182018 59 180 4.0 7.0 0.00 0.00 0.00 58 1009.8
20260506181018 59 203 5.0 9.0 0.00 0.00 0.00 57 1009.6
20260506180018 59 203 8.0 13.0 0.00 0.00 0.00 56 1009.5
20260506175038 59 203 7.0 12.0 0.00 0.00 0.00 56 1009.4
20260506174058 60 203 8.0 14.0 0.00 0.00 0.00 55 1009.2
20260506173018 60 203 9.0 17.0 0.00 0.00 0.00 55 1009.1
20260506172038 60 203 8.0 12.0 0.00 0.00 0.00 55 1009.1
20260506171018 60 203 8.0 14.0 0.00 0.00 0.00 54 1009.0
20260506170018 60 203 10.0 17.0 0.00 0.01 0.00 54 1008.9
20260506165038 61 225 9.0 17.0 0.00 0.01 0.00 53 1009.0
20260506164018 61 203 11.0 20.0 0.00 0.01 0.00 54 1009.0
20260506163018 61 203 10.0 19.0 0.00 0.01 0.00 53 1009.0
20260506162018 60 203 10.0 17.0 0.00 0.01 0.00 53 1008.9
20260506161038 61 203 10.0 20.0 0.00 0.01 0.00 52 1008.9
20260506160018 61 203 8.0 17.0 0.00 0.01 0.00 52 1008.9
20260506155018 60 203 10.0 19.0 0.00 0.01 0.00 52 1009.0
20260506154018 61 203 11.0 20.0 0.00 0.01 0.00 51 1009.0
20260506153018 61 203 12.0 23.0 0.00 0.01 0.00 50 1009.0
20260506152018 62 203 10.0 19.0 0.00 0.01 0.00 50 1009.0
20260506151018 62 203 10.0 21.0 0.00 0.01 0.00 49 1009.1
20260506150017 61 203 12.0 22.0 0.00 0.01 0.00 51 1009.0
20260506145018 62 203 10.0 18.0 0.00 0.01 0.00 50 1009.2
20260506144017 61 225 10.0 19.0 0.00 0.01 0.00 51 1009.2
20260506143017 61 203 9.0 18.0 0.00 0.01 0.00 53 1009.4
20260506142017 61 203 10.0 18.0 0.00 0.01 0.00 53 1009.6
20260506141017 61 203 8.0 16.0 0.00 0.01 0.00 53 1009.7
20260506140018 61 203 8.0 19.0 0.00 0.01 0.00 52 1009.7
20260506135037 61 203 8.0 19.0 0.00 0.01 0.00 51 1009.8
20260506134117 60 203 8.0 16.0 0.00 0.01 0.00 51 1009.9
20260506133037 60 203 8.0 18.0 0.00 0.01 0.00 52 1010.0
20260506132017 60 203 7.0 15.0 0.00 0.01 0.00 52 1010.0
20260506131017 60 180 7.0 16.0 0.00 0.01 0.00 53 1010.1
20260506130017 59 180 8.0 19.0 0.00 0.01 0.00 55 1010.1
20260506125017 59 180 8.0 15.0 0.00 0.01 0.00 55 1010.2
20260506124017 59 180 7.0 13.0 0.00 0.01 0.00 56 1010.2
20260506123017 59 135 5.0 12.0 0.00 0.01 0.00 62 1010.3
20260506122037 59 135 6.0 10.0 0.00 0.01 0.00 61 1010.3
20260506121057 59 180 3.0 7.0 0.00 0.01 0.00 61 1010.3
20260506120037 59 158 4.0 8.0 0.00 0.01 0.00 63 1010.4
20260506115037 59 158 4.0 10.0 0.00 0.01 0.00 63 1010.4
20260506114017 58 180 6.0 11.0 0.00 0.01 0.00 64 1010.4
20260506113017 58 203 3.0 12.0 0.00 0.01 0.00 63 1010.6
20260506112017 57 158 3.0 9.0 0.00 0.01 0.00 66 1010.8
20260506111017 56 180 3.0 8.0 0.00 0.01 0.00 70 1010.7
20260506110017 54 180 4.0 9.0 0.00 0.01 0.00 72 1010.6
20260506105037 55 135 3.0 8.0 0.00 0.01 0.00 71 1010.9
20260506104017 54 203 2.0 7.0 0.00 0.01 0.00 74 1011.0
20260506103017 53 248 1.0 4.0 0.00 0.01 0.00 76 1011.0
20260506102017 52 0 2.0 4.0 0.00 0.01 0.00 77 1010.9
20260506101017 52 135 1.0 4.0 0.00 0.01 0.00 77 1011.1
20260506100037 51 135 2.0 6.0 0.00 0.01 0.00 78 1011.2
20260506095017 51 135 2.0 5.0 0.00 0.01 0.00 79 1011.3
20260506094017 51 113 4.0 10.0 0.00 0.01 0.00 78 1011.2
20260506093036 51 113 2.0 7.0 0.00 0.01 0.00 79 1011.0
20260506092017 51 135 3.0 8.0 0.00 0.01 0.00 78 1010.8
20260506091017 50 158 2.0 5.0 0.00 0.01 0.00 79 1010.7
20260506090036 50 225 2.0 7.0 0.00 0.01 0.00 78 1010.7
20260506085017 50 180 3.0 7.0 0.00 0.01 0.00 79 1010.7
20260506084017 50 180 2.0 7.0 0.00 0.01 0.00 80 1010.7
20260506083017 49 158 1.0 4.0 0.00 0.01 0.00 81 1010.5
20260506082016 49 158 2.0 6.0 0.00 0.01 0.00 82 1010.4
20260506081017 48 135 2.0 4.0 0.00 0.01 0.00 83 1010.4
20260506073038 47 158 2.0 4.0 0.00 0.01 0.00 84 1010.2
20260506072058 46 68 2.0 5.0 0.00 0.01 0.00 86 1010.1
20260506071018 46 113 2.0 6.0 0.00 0.01 0.00 88 1010.1